Other Surface Observations
Issued by NWS Charleston, SC

Current Version |  Previous Version |  Text Only |  Print | Product List |  Glossary On
Versions: 1 2 3 4 5 6 7 8 9 10 11 12 13 14 15 16 17 18 19 20 21 22 23 24 25 26 27 28 29 30 31 32 33 34 35 36 37 38 39 40 41 42 43 44 45 46 47 48 49 50
603
SXUS52 KCHS 300011
OSOCHS

Marine Observations
National Weather Service Charleston SC
800 PM EDT WED MAY 29 2024

...Downtown Charleston and Harbor...

CITY           SKY/WX    TMP DP  RH WIND       PRES   REMARKS
Waterfront Prk   N/A     88  57  34 W5        29.80S

...Lake Moultrie...

CITY           SKY/WX    TMP DP  RH WIND       PRES   REMARKS
Pinopolis        N/A     84  64  51 VRB2        N/A

...Lake and Supplemental Coastal Observations...

STATION/POSITION TIME  TEMP    WIND        PRES    WAVE   SWELL
                       AIR SEA DIR/SP/G            HT/PER HT/PER/DIR
                 (UTC) (F)     (DEG/KT/KT) (MB)    (FT/S) (FT/S/D)
Chrlstn Harbor   2330   87 81  280/  5/  9 1014.6R
Fort Pulaski     2330   85 80  320/ 10/ 12 1015.4R
Sapelo Island    2300   88     290/  9     1015.0
Winyah Bay       2245   82     160/  5     1014.0
Lake Murray      2320   82     280/  4/  6   N/A
ACE Basin NERRS  2245   87     250/  2     1014.0


...C-MAN and Buoy Observations...

STATION/POSITION TIME  TEMP    WIND        PRES    WAVE   SWELL
                       AIR SEA DIR/SP/G            HT/PER HT/PER/DIR
                 (UTC) (F)     (DEG/KT/KT) (MB)    (FT/S) (FT/S/D)
Buoy 41004       2350   80 80  250/  8/ 10 1014.4R   2/ 8
Buoy 41008       2350   82 82  170/  8/ 12 1015.6R   1/ 8   2/110/ 8
Folly Beach CMAN NOT AVBL
Pritchards Islan NOT AVBL
Chas Pilot Buoy  2308   81 79  240/  8/ 12 1014.0R
Chas Pilot Wave  2308                        N/A     2/ 8
Capers NS Buoy   2308   83 78  340/  4/  8 1013.6F
Capers NS Wave   2322                        N/A     1/ 8
Fripp NS Buoy    2308   84 78  280/  8/ 12 1013.9F
Fripp NS Wave    2305      78                N/A     1/ 8
5E St. Marys GA  2300   86 81                N/A     1/ 8


STATION/POSITION TIME  TEMP    WIND        PRES    WAVE   SWELL
                       AIR SEA DIR/SP/G            HT/PER HT/PER/DIR
                 (UTC) (F)     (DEG/KT/KT) (MB)    (FT/S) (FT/S/D)
Frying Pan Buoy  2350   80 79  200/  6/  8 1014.5R   2/ 5   2/180/ 5
Buoy 41025       2350      72  110/  2/  4 1013.4S   2/ 7
Cape Lookout NC  2300   76     120/  6/  7 1013.5S
Buoy 41002       2340   79 78  210/ 10/ 12 1013.2R
Buoy 41010       2340   82 83  290/  2/  4 1016.0R
St Augustine FL  0000   81 83  150/  6/  6 1016.0R

$$